sat.trackr.live / text

‹ back to catalog

ICEYE-X36

NORAD 59103 · 2024-043F

PAYLOAD ACTIVE UNKNOWN

§ Identity

Operator
Country
US
Launch date
2024-03-04
Launch site
AFWTR
Launch vehicle
Mass (kg)
RCS (m²)

External: N2YO · Heavens-Above · Gunter

§ Orbital elements

Epoch: 2026-05-25T03:22:23.760192Z

Period
95.58 min
Inclination
97.8333°
Eccentricity
0.0006634
Mean motion
15.06659711 rev/d
Perigee alt
541.8 km
Apogee alt
551.0 km
Semi-major
6,924.6 km
B*
2.5148e-4
RAAN
282.8132°
Arg perigee
49.1053°
Mean anomaly
311.0747°
Rev number
12,167

§ Raw data

ICEYE-X361 59103U 24043F   26145.14055278  .00003667  00000+0  25148-3 0  99952 59103  97.8333 282.8132 0006634  49.1053 311.0747 15.06659711121671

JSON: /api/v1/satellites/59103 · /tle

For live sub-satellite position, see the globe view (requires WebGL).

§ Visibility from observer

Set your observer location to see the next 7 days of passes ≥ 10°. The values pass through the URL so the page stays shareable.

No JS? Fill the form by hand. The geolocation button needs JavaScript.